Zurück zum Katalog

STARLINK-35126

AktivKommunikationVLEO
NORAD 65503·PAYLOAD·🇺🇸 United States

Gestartet Sep 5, 2025 von Cape Canaveral Space Force Station

Loading…

Nächste Überflüge (nächste 24 Stunden)

TLE

AktuellSource: CelesTrak SupGP

Epoche: Sep 14, 2026, 15:08 UTC

1 65503C 25198M   26257.63104167  .00008654  00000+0  25561-3 0  2575
2 65503  53.1571 110.9866 0001315  98.5682 190.0272 15.34395487    13

Verfolge STARLINK-35126 in Echtzeit mit AllMySat

Download on the App Store